Retour au catalogue

STARLINK-37044

ActifCommunicationsVLEO
NORAD 68247·PAYLOAD·🇺🇸 United States

Lancé Mar 17, 2026 depuis Vandenberg Space Force Base

Loading…

Prochains Passages (prochaines 24 heures)

TLE

FraisSource: CelesTrak SupGP

Époque: Sep 15, 2026, 03:12 UTC

1 68247C 26054R   26258.13381944  .00041860  00000+0  12367-2 0  2587
2 68247  53.1565 126.6758 0001269  78.3023 180.8919 15.34372491    16

Suivez STARLINK-37044 en temps réel avec AllMySat

Download on the App Store